owner,sensor,date,latitude,longitude,vertical_datum,mass_concentration_of_oxygen_in_sea_water,qcFlag 
DISL,ioos:station:DISL:PPTA:1,2012-11-01T00:00:00Z,30.2791,-87.5561,1.227,6.94,1111122 
DISL,ioos:station:DISL:PPTA:1,2012-11-01T00:30:00Z,30.2791,-87.5561,1.247,6.95,1111122 
DISL,ioos:station:DISL:PPTA:1,2012-11-01T01:00:00Z,30.2791,-87.5561,1.271,6.88,1111122 
DISL,ioos:station:DISL:PPTA:1,2012-11-01T01:30:00Z,30.2791,-87.5561,1.283,6.85,1111122 
DISL,ioos:station:DISL:PPTA:1,2012-11-01T02:00:00Z,30.2791,-87.5561,1.291,6.74,1111122 
DISL,ioos:station:DISL:PPTA:1,2012-11-01T02:30:00Z,30.2791,-87.5561,1.303,6.55,1111122 
DISL,ioos:station:DISL:PPTA:1,2012-11-01T03:00:00Z,30.2791,-87.5561,1.312,6.66,1111122 
DISL,ioos:station:DISL:PPTA:1,2012-11-01T03:30:00Z,30.2791,-87.5561,1.32,6.69,1111122 
DISL,ioos:station:DISL:PPTA:1,2012-11-01T04:00:00Z,30.2791,-87.5561,1.324,6.78,1111122 
DISL,ioos:station:DISL:PPTA:1,2012-11-01T04:30:00Z,30.2791,-87.5561,1.318,6.57,1111122 
DISL,ioos:station:DISL:PPTA:1,2012-11-01T05:00:00Z,30.2791,-87.5561,1.323,6.77,1111122 
DISL,ioos:station:DISL:PPTA:1,2012-11-01T05:30:00Z,30.2791,-87.5561,1.322,6.72,1111122 
DISL,ioos:station:DISL:PPTA:1,2012-11-01T06:00:00Z,30.2791,-87.5561,1.299,6.63,1111122 
DISL,ioos:station:DISL:PPTA:1,2012-11-01T06:30:00Z,30.2791,-87.5561,1.286,6.66,1111122 
DISL,ioos:station:DISL:PPTA:1,2012-11-01T07:00:00Z,30.2791,-87.5561,1.261,6.72,1111122 
DISL,ioos:station:DISL:PPTA:1,2012-11-01T07:30:00Z,30.2791,-87.5561,1.235,6.77,1111122 
DISL,ioos:station:DISL:PPTA:1,2012-11-01T08:00:00Z,30.2791,-87.5561,1.229,6.89,1111122 
DISL,ioos:station:DISL:PPTA:1,2012-11-01T08:30:00Z,30.2791,-87.5561,1.208,6.96,1111122 
DISL,ioos:station:DISL:PPTA:1,2012-11-01T09:00:00Z,30.2791,-87.5561,1.179,6.89,1111122 
DISL,ioos:station:DISL:PPTA:1,2012-11-01T09:30:00Z,30.2791,-87.5561,1.167,6.73,1111122 
DISL,ioos:station:DISL:PPTA:1,2012-11-01T10:00:00Z,30.2791,-87.5561,1.162,6.89,1111122 
DISL,ioos:station:DISL:PPTA:1,2012-11-01T10:30:00Z,30.2791,-87.5561,1.144,6.84,1111122 
DISL,ioos:station:DISL:PPTA:1,2012-11-01T11:00:00Z,30.2791,-87.5561,1.134,6.77,1111122 
DISL,ioos:station:DISL:PPTA:1,2012-11-01T11:30:00Z,30.2791,-87.5561,1.137,6.87,1111122 
DISL,ioos:station:DISL:PPTA:1,2012-11-01T12:00:00Z,30.2791,-87.5561,1.118,7.16,1111122 
DISL,ioos:station:DISL:PPTA:1,2012-11-01T12:30:00Z,30.2791,-87.5561,1.106,7.26,1111122 
DISL,ioos:station:DISL:PPTA:1,2012-11-01T13:00:00Z,30.2791,-87.5561,1.093,7.24,1111122 
DISL,ioos:station:DISL:PPTA:1,2012-11-01T13:30:00Z,30.2791,-87.5561,1.104,7.23,1111122 
DISL,ioos:station:DISL:PPTA:1,2012-11-01T14:00:00Z,30.2791,-87.5561,1.091,7.26,1111122 
DISL,ioos:station:DISL:PPTA:1,2012-11-01T14:30:00Z,30.2791,-87.5561,1.09,7.09,1111122 
DISL,ioos:station:DISL:PPTA:1,2012-11-01T15:00:00Z,30.2791,-87.5561,1.091,7.12,1111122 
DISL,ioos:station:DISL:PPTA:1,2012-11-01T15:30:00Z,30.2791,-87.5561,1.091,7.17,1111122 
DISL,ioos:station:DISL:PPTA:1,2012-11-01T16:00:00Z,30.2791,-87.5561,1.099,7.25,1111122 
DISL,ioos:station:DISL:PPTA:1,2012-11-01T16:30:00Z,30.2791,-87.5561,1.102,7.55,1111122 
DISL,ioos:station:DISL:PPTA:1,2012-11-01T17:00:00Z,30.2791,-87.5561,1.124,7.21,1111122 
DISL,ioos:station:DISL:PPTA:1,2012-11-01T17:30:00Z,30.2791,-87.5561,1.134,7.03,1111122 
DISL,ioos:station:DISL:PPTA:1,2012-11-01T18:00:00Z,30.2791,-87.5561,1.143,7.18,1111122 
DISL,ioos:station:DISL:PPTA:1,2012-11-01T18:30:00Z,30.2791,-87.5561,1.149,7.44,1111122 
DISL,ioos:station:DISL:PPTA:1,2012-11-01T19:00:00Z,30.2791,-87.5561,1.152,7.34,1111122 
DISL,ioos:station:DISL:PPTA:1,2012-11-01T19:30:00Z,30.2791,-87.5561,1.154,7.37,1111122 
DISL,ioos:station:DISL:PPTA:1,2012-11-01T20:00:00Z,30.2791,-87.5561,1.168,7.39,1111122 
DISL,ioos:station:DISL:PPTA:1,2012-11-01T20:30:00Z,30.2791,-87.5561,1.19,7.19,1111122 
DISL,ioos:station:DISL:PPTA:1,2012-11-01T21:00:00Z,30.2791,-87.5561,1.197,7.06,1111122 
DISL,ioos:station:DISL:PPTA:1,2012-11-01T21:30:00Z,30.2791,-87.5561,1.218,7.21,1111122 
DISL,ioos:station:DISL:PPTA:1,2012-11-01T22:00:00Z,30.2791,-87.5561,1.231,7.04,1111122 
DISL,ioos:station:DISL:PPTA:1,2012-11-01T22:30:00Z,30.2791,-87.5561,1.252,7.0,1111122 
DISL,ioos:station:DISL:PPTA:1,2012-11-01T23:00:00Z,30.2791,-87.5561,1.279,6.84,1111122 
DISL,ioos:station:DISL:PPTA:1,2012-11-01T23:30:00Z,30.2791,-87.5561,1.296,6.82,1111122 
DISL,ioos:station:DISL:PPTA:1,2012-11-02T00:00:00Z,30.2791,-87.5561,1.316,6.6,1111122 
DISL,ioos:station:DISL:PPTA:1,2012-11-02T00:30:00Z,30.2791,-87.5561,1.349,6.54,1111122 
DISL,ioos:station:DISL:PPTA:1,2012-11-02T01:00:00Z,30.2791,-87.5561,1.364,6.43,1111122 
DISL,ioos:station:DISL:PPTA:1,2012-11-02T01:30:00Z,30.2791,-87.5561,1.387,6.24,1111122 
DISL,ioos:station:DISL:PPTA:1,2012-11-02T02:00:00Z,30.2791,-87.5561,1.398,6.6,1111122 
DISL,ioos:station:DISL:PPTA:1,2012-11-02T02:30:00Z,30.2791,-87.5561,1.407,6.49,1111122 
DISL,ioos:station:DISL:PPTA:1,2012-11-02T03:00:00Z,30.2791,-87.5561,1.42,6.53,1111122 
DISL,ioos:station:DISL:PPTA:1,2012-11-02T03:30:00Z,30.2791,-87.5561,1.424,6.52,1111122 
DISL,ioos:station:DISL:PPTA:1,2012-11-02T04:00:00Z,30.2791,-87.5561,1.429,6.77,1111122 
DISL,ioos:station:DISL:PPTA:1,2012-11-02T04:30:00Z,30.2791,-87.5561,1.439,6.6,1111122 
DISL,ioos:station:DISL:PPTA:1,2012-11-02T05:00:00Z,30.2791,-87.5561,1.441,6.61,1111122 
DISL,ioos:station:DISL:PPTA:1,2012-11-02T05:30:00Z,30.2791,-87.5561,1.444,6.47,1111122 
DISL,ioos:station:DISL:PPTA:1,2012-11-02T06:00:00Z,30.2791,-87.5561,1.443,6.51,1111122 
DISL,ioos:station:DISL:PPTA:1,2012-11-02T06:30:00Z,30.2791,-87.5561,1.433,6.49,1111122 
DISL,ioos:station:DISL:PPTA:1,2012-11-02T07:00:00Z,30.2791,-87.5561,1.424,6.57,1111122 
DISL,ioos:station:DISL:PPTA:1,2012-11-02T07:30:00Z,30.2791,-87.5561,1.401,6.61,1111122 
DISL,ioos:station:DISL:PPTA:1,2012-11-02T08:00:00Z,30.2791,-87.5561,1.379,6.61,1111122 
DISL,ioos:station:DISL:PPTA:1,2012-11-02T08:30:00Z,30.2791,-87.5561,1.351,6.51,1111122 
DISL,ioos:station:DISL:PPTA:1,2012-11-02T09:00:00Z,30.2791,-87.5561,1.341,6.71,1111122 
DISL,ioos:station:DISL:PPTA:1,2012-11-02T09:30:00Z,30.2791,-87.5561,1.325,6.7,1111122 
DISL,ioos:station:DISL:PPTA:1,2012-11-02T10:00:00Z,30.2791,-87.5561,1.314,6.77,1111122 
DISL,ioos:station:DISL:PPTA:1,2012-11-02T10:30:00Z,30.2791,-87.5561,1.302,6.63,1111122 
DISL,ioos:station:DISL:PPTA:1,2012-11-02T11:00:00Z,30.2791,-87.5561,1.295,6.57,1111122 
DISL,ioos:station:DISL:PPTA:1,2012-11-02T11:30:00Z,30.2791,-87.5561,1.279,6.69,1111122 
DISL,ioos:station:DISL:PPTA:1,2012-11-02T12:00:00Z,30.2791,-87.5561,1.261,6.55,1111122 
DISL,ioos:station:DISL:PPTA:1,2012-11-02T12:30:00Z,30.2791,-87.5561,1.25,6.91,1111122 
DISL,ioos:station:DISL:PPTA:1,2012-11-02T13:00:00Z,30.2791,-87.5561,1.234,7.2,1111122 
DISL,ioos:station:DISL:PPTA:1,2012-11-02T13:30:00Z,30.2791,-87.5561,1.234,7.2,1111122 
DISL,ioos:station:DISL:PPTA:1,2012-11-02T14:00:00Z,30.2791,-87.5561,1.221,7.27,1111122 
DISL,ioos:station:DISL:PPTA:1,2012-11-02T14:30:00Z,30.2791,-87.5561,1.205,7.27,1111122 
DISL,ioos:station:DISL:PPTA:1,2012-11-02T15:00:00Z,30.2791,-87.5561,1.197,7.23,1111122 
DISL,ioos:station:DISL:PPTA:1,2012-11-02T15:30:00Z,30.2791,-87.5561,1.188,7.31,1111122 
DISL,ioos:station:DISL:PPTA:1,2012-11-02T16:00:00Z,30.2791,-87.5561,1.179,7.21,1111122 
DISL,ioos:station:DISL:PPTA:1,2012-11-02T16:30:00Z,30.2791,-87.5561,1.184,7.27,1111122 
DISL,ioos:station:DISL:PPTA:1,2012-11-02T17:00:00Z,30.2791,-87.5561,1.186,7.67,1111122 
DISL,ioos:station:DISL:PPTA:1,2012-11-02T17:30:00Z,30.2791,-87.5561,1.194,7.9,1111122 
DISL,ioos:station:DISL:PPTA:1,2012-11-02T18:00:00Z,30.2791,-87.5561,1.204,7.75,1111122 
DISL,ioos:station:DISL:PPTA:1,2012-11-02T18:30:00Z,30.2791,-87.5561,1.189,7.83,1111122 
DISL,ioos:station:DISL:PPTA:1,2012-11-02T19:00:00Z,30.2791,-87.5561,1.183,7.82,1111122 
DISL,ioos:station:DISL:PPTA:1,2012-11-02T19:30:00Z,30.2791,-87.5561,1.192,7.82,1111122 
DISL,ioos:station:DISL:PPTA:1,2012-11-02T20:00:00Z,30.2791,-87.5561,1.211,7.71,1111122 
DISL,ioos:station:DISL:PPTA:1,2012-11-02T20:30:00Z,30.2791,-87.5561,1.224,7.91,1111122 
DISL,ioos:station:DISL:PPTA:1,2012-11-02T21:00:00Z,30.2791,-87.5561,1.225,7.79,1111122 
DISL,ioos:station:DISL:PPTA:1,2012-11-02T21:30:00Z,30.2791,-87.5561,1.24,7.71,1111122 
DISL,ioos:station:DISL:PPTA:1,2012-11-02T22:00:00Z,30.2791,-87.5561,1.256,7.58,1111122 
DISL,ioos:station:DISL:PPTA:1,2012-11-02T22:30:00Z,30.2791,-87.5561,1.265,7.41,1111122 
DISL,ioos:station:DISL:PPTA:1,2012-11-02T23:00:00Z,30.2791,-87.5561,1.288,7.37,1111122 
DISL,ioos:station:DISL:PPTA:1,2012-11-02T23:30:00Z,30.2791,-87.5561,1.309,7.26,1111122 
DISL,ioos:station:DISL:PPTA:1,2012-11-03T00:00:00Z,30.2791,-87.5561,1.329,7.0,1111122 
DISL,ioos:station:DISL:PPTA:1,2012-11-03T00:30:00Z,30.2791,-87.5561,1.355,7.04,1111122 
DISL,ioos:station:DISL:PPTA:1,2012-11-03T01:00:00Z,30.2791,-87.5561,1.372,6.76,1111122 
DISL,ioos:station:DISL:PPTA:1,2012-11-03T01:30:00Z,30.2791,-87.5561,1.387,6.73,1111122 
DISL,ioos:station:DISL:PPTA:1,2012-11-03T02:00:00Z,30.2791,-87.5561,1.402,6.72,1111122 
DISL,ioos:station:DISL:PPTA:1,2012-11-03T02:30:00Z,30.2791,-87.5561,1.423,6.63,1111122 
DISL,ioos:station:DISL:PPTA:1,2012-11-03T03:00:00Z,30.2791,-87.5561,1.423,6.82,1111122 
DISL,ioos:station:DISL:PPTA:1,2012-11-03T03:30:00Z,30.2791,-87.5561,1.435,6.36,1111122 
DISL,ioos:station:DISL:PPTA:1,2012-11-03T04:00:00Z,30.2791,-87.5561,1.442,6.81,1111122 
DISL,ioos:station:DISL:PPTA:1,2012-11-03T04:30:00Z,30.2791,-87.5561,1.439,6.65,1111122 
DISL,ioos:station:DISL:PPTA:1,2012-11-03T05:00:00Z,30.2791,-87.5561,1.45,6.34,1111122 
DISL,ioos:station:DISL:PPTA:1,2012-11-03T05:30:00Z,30.2791,-87.5561,1.457,6.54,1111122 
DISL,ioos:station:DISL:PPTA:1,2012-11-03T06:00:00Z,30.2791,-87.5561,1.461,6.55,1111122 
DISL,ioos:station:DISL:PPTA:1,2012-11-03T06:30:00Z,30.2791,-87.5561,1.453,6.46,1111122 
DISL,ioos:station:DISL:PPTA:1,2012-11-03T07:00:00Z,30.2791,-87.5561,1.442,6.63,1111122 
DISL,ioos:station:DISL:PPTA:1,2012-11-03T07:30:00Z,30.2791,-87.5561,1.414,6.73,1111122 
DISL,ioos:station:DISL:PPTA:1,2012-11-03T08:00:00Z,30.2791,-87.5561,1.401,6.6,1111122 
DISL,ioos:station:DISL:PPTA:1,2012-11-03T08:30:00Z,30.2791,-87.5561,1.382,6.74,1111122 
DISL,ioos:station:DISL:PPTA:1,2012-11-03T09:00:00Z,30.2791,-87.5561,1.365,6.79,1111122 
DISL,ioos:station:DISL:PPTA:1,2012-11-03T09:30:00Z,30.2791,-87.5561,1.342,6.69,1111122 
DISL,ioos:station:DISL:PPTA:1,2012-11-03T10:00:00Z,30.2791,-87.5561,1.333,6.73,1111122 
DISL,ioos:station:DISL:PPTA:1,2012-11-03T10:30:00Z,30.2791,-87.5561,1.324,6.77,1111122 
DISL,ioos:station:DISL:PPTA:1,2012-11-03T11:00:00Z,30.2791,-87.5561,1.304,6.66,1111122 
DISL,ioos:station:DISL:PPTA:1,2012-11-03T11:30:00Z,30.2791,-87.5561,1.29,6.67,1111122 
DISL,ioos:station:DISL:PPTA:1,2012-11-03T12:00:00Z,30.2791,-87.5561,1.274,6.75,1111122 
DISL,ioos:station:DISL:PPTA:1,2012-11-03T12:30:00Z,30.2791,-87.5561,1.258,7.05,1111122 
DISL,ioos:station:DISL:PPTA:1,2012-11-03T13:00:00Z,30.2791,-87.5561,1.239,7.17,1111122 
DISL,ioos:station:DISL:PPTA:1,2012-11-03T13:30:00Z,30.2791,-87.5561,1.23,7.21,1111122 
DISL,ioos:station:DISL:PPTA:1,2012-11-03T14:00:00Z,30.2791,-87.5561,1.223,7.2,1111122 
DISL,ioos:station:DISL:PPTA:1,2012-11-03T14:30:00Z,30.2791,-87.5561,1.217,7.24,1111122 
DISL,ioos:station:DISL:PPTA:1,2012-11-03T15:00:00Z,30.2791,-87.5561,1.201,7.25,1111122 
DISL,ioos:station:DISL:PPTA:1,2012-11-03T15:30:00Z,30.2791,-87.5561,1.194,7.23,1111122 
DISL,ioos:station:DISL:PPTA:1,2012-11-03T16:00:00Z,30.2791,-87.5561,1.191,7.28,1111122 
DISL,ioos:station:DISL:PPTA:1,2012-11-03T16:30:00Z,30.2791,-87.5561,1.185,7.4,1111122 
DISL,ioos:station:DISL:PPTA:1,2012-11-03T17:00:00Z,30.2791,-87.5561,1.189,7.4,1111122 
DISL,ioos:station:DISL:PPTA:1,2012-11-03T17:30:00Z,30.2791,-87.5561,1.183,7.43,1111122 
DISL,ioos:station:DISL:PPTA:1,2012-11-03T18:00:00Z,30.2791,-87.5561,1.186,7.76,1111122 
DISL,ioos:station:DISL:PPTA:1,2012-11-03T18:30:00Z,30.2791,-87.5561,1.183,7.88,1111122 
DISL,ioos:station:DISL:PPTA:1,2012-11-03T19:00:00Z,30.2791,-87.5561,1.183,7.79,1111122 
DISL,ioos:station:DISL:PPTA:1,2012-11-03T19:30:00Z,30.2791,-87.5561,1.187,7.61,1111122 
DISL,ioos:station:DISL:PPTA:1,2012-11-03T20:00:00Z,30.2791,-87.5561,1.186,7.87,1111122 
DISL,ioos:station:DISL:PPTA:1,2012-11-03T20:30:00Z,30.2791,-87.5561,1.202,7.62,1111122 
DISL,ioos:station:DISL:PPTA:1,2012-11-03T21:00:00Z,30.2791,-87.5561,1.216,7.74,1111122 
DISL,ioos:station:DISL:PPTA:1,2012-11-03T21:30:00Z,30.2791,-87.5561,1.209,8.02,1111122 
DISL,ioos:station:DISL:PPTA:1,2012-11-03T22:00:00Z,30.2791,-87.5561,1.22,7.58,1111122 
DISL,ioos:station:DISL:PPTA:1,2012-11-03T22:30:00Z,30.2791,-87.5561,1.239,7.38,1111122 
DISL,ioos:station:DISL:PPTA:1,2012-11-03T23:00:00Z,30.2791,-87.5561,1.249,7.35,1111122 
DISL,ioos:station:DISL:PPTA:1,2012-11-03T23:30:00Z,30.2791,-87.5561,1.264,7.12,1111122 
DISL,ioos:station:DISL:PPTA:1,2012-11-04T00:00:00Z,30.2791,-87.5561,1.289,6.83,1111122 
DISL,ioos:station:DISL:PPTA:1,2012-11-04T00:30:00Z,30.2791,-87.5561,1.314,6.59,1111122 
DISL,ioos:station:DISL:PPTA:1,2012-11-04T01:00:00Z,30.2791,-87.5561,1.334,6.7,1111122 
DISL,ioos:station:DISL:PPTA:1,2012-11-04T01:30:00Z,30.2791,-87.5561,1.35,6.75,1111122 
DISL,ioos:station:DISL:PPTA:1,2012-11-04T02:00:00Z,30.2791,-87.5561,1.357,6.61,1111122 
DISL,ioos:station:DISL:PPTA:1,2012-11-04T02:30:00Z,30.2791,-87.5561,1.382,6.42,1111122 
DISL,ioos:station:DISL:PPTA:1,2012-11-04T03:00:00Z,30.2791,-87.5561,1.386,6.34,1111122 
DISL,ioos:station:DISL:PPTA:1,2012-11-04T03:30:00Z,30.2791,-87.5561,1.395,6.18,1111122 
DISL,ioos:station:DISL:PPTA:1,2012-11-04T04:00:00Z,30.2791,-87.5561,1.41,6.3,1111122 
DISL,ioos:station:DISL:PPTA:1,2012-11-04T04:30:00Z,30.2791,-87.5561,1.41,6.38,1111122 
DISL,ioos:station:DISL:PPTA:1,2012-11-04T05:00:00Z,30.2791,-87.5561,1.423,6.5,1111122 
DISL,ioos:station:DISL:PPTA:1,2012-11-04T05:30:00Z,30.2791,-87.5561,1.427,6.41,1111122 
DISL,ioos:station:DISL:PPTA:1,2012-11-04T06:00:00Z,30.2791,-87.5561,1.416,6.31,1111122 
DISL,ioos:station:DISL:PPTA:1,2012-11-04T06:30:00Z,30.2791,-87.5561,1.428,6.28,1111122 
DISL,ioos:station:DISL:PPTA:1,2012-11-04T07:00:00Z,30.2791,-87.5561,1.409,6.48,1111122 
DISL,ioos:station:DISL:PPTA:1,2012-11-04T07:30:00Z,30.2791,-87.5561,1.409,6.33,1111122 
DISL,ioos:station:DISL:PPTA:1,2012-11-04T08:00:00Z,30.2791,-87.5561,1.396,6.52,1111122 
DISL,ioos:station:DISL:PPTA:1,2012-11-04T08:30:00Z,30.2791,-87.5561,1.375,6.38,1111122 
DISL,ioos:station:DISL:PPTA:1,2012-11-04T09:00:00Z,30.2791,-87.5561,1.364,6.54,1111122 
DISL,ioos:station:DISL:PPTA:1,2012-11-04T09:30:00Z,30.2791,-87.5561,1.342,6.42,1111122 
DISL,ioos:station:DISL:PPTA:1,2012-11-04T10:00:00Z,30.2791,-87.5561,1.33,6.55,1111122 
DISL,ioos:station:DISL:PPTA:1,2012-11-04T10:30:00Z,30.2791,-87.5561,1.322,6.41,1111122 
DISL,ioos:station:DISL:PPTA:1,2012-11-04T11:00:00Z,30.2791,-87.5561,1.304,6.41,1111122 
DISL,ioos:station:DISL:PPTA:1,2012-11-04T11:30:00Z,30.2791,-87.5561,1.276,6.43,1111122 
DISL,ioos:station:DISL:PPTA:1,2012-11-04T12:00:00Z,30.2791,-87.5561,1.265,6.31,1111122 
DISL,ioos:station:DISL:PPTA:1,2012-11-04T12:30:00Z,30.2791,-87.5561,1.254,6.88,1111122 
DISL,ioos:station:DISL:PPTA:1,2012-11-04T13:00:00Z,30.2791,-87.5561,1.227,6.27,1111122 
DISL,ioos:station:DISL:PPTA:1,2012-11-04T13:30:00Z,30.2791,-87.5561,1.223,7.01,1111122 
DISL,ioos:station:DISL:PPTA:1,2012-11-04T14:00:00Z,30.2791,-87.5561,1.208,7.03,1111122 
DISL,ioos:station:DISL:PPTA:1,2012-11-04T14:30:00Z,30.2791,-87.5561,1.193,7.03,1111122 
DISL,ioos:station:DISL:PPTA:1,2012-11-04T15:00:00Z,30.2791,-87.5561,1.185,7.0,1111122 
DISL,ioos:station:DISL:PPTA:1,2012-11-04T15:30:00Z,30.2791,-87.5561,1.17,7.13,1111122 
DISL,ioos:station:DISL:PPTA:1,2012-11-04T16:00:00Z,30.2791,-87.5561,1.166,7.14,1111122 
DISL,ioos:station:DISL:PPTA:1,2012-11-04T16:30:00Z,30.2791,-87.5561,1.16,7.33,1111122 
DISL,ioos:station:DISL:PPTA:1,2012-11-04T17:00:00Z,30.2791,-87.5561,1.157,7.29,1111122 
DISL,ioos:station:DISL:PPTA:1,2012-11-04T17:30:00Z,30.2791,-87.5561,1.156,7.44,1111122 
DISL,ioos:station:DISL:PPTA:1,2012-11-04T18:00:00Z,30.2791,-87.5561,1.155,7.4,1111122 
DISL,ioos:station:DISL:PPTA:1,2012-11-04T18:30:00Z,30.2791,-87.5561,1.164,7.67,1111122 
DISL,ioos:station:DISL:PPTA:1,2012-11-04T19:00:00Z,30.2791,-87.5561,1.165,7.9,1111122 
DISL,ioos:station:DISL:PPTA:1,2012-11-04T19:30:00Z,30.2791,-87.5561,1.177,7.71,1111122 
DISL,ioos:station:DISL:PPTA:1,2012-11-04T20:00:00Z,30.2791,-87.5561,1.172,7.27,1111122 
DISL,ioos:station:DISL:PPTA:1,2012-11-04T20:30:00Z,30.2791,-87.5561,1.175,7.09,1111122 
DISL,ioos:station:DISL:PPTA:1,2012-11-04T21:00:00Z,30.2791,-87.5561,1.17,6.87,1111122 
DISL,ioos:station:DISL:PPTA:1,2012-11-04T21:30:00Z,30.2791,-87.5561,1.186,6.87,1111122 
DISL,ioos:station:DISL:PPTA:1,2012-11-04T22:00:00Z,30.2791,-87.5561,1.198,7.11,1111122 
DISL,ioos:station:DISL:PPTA:1,2012-11-04T22:30:00Z,30.2791,-87.5561,1.171,6.55,1111122 
DISL,ioos:station:DISL:PPTA:1,2012-11-04T23:00:00Z,30.2791,-87.5561,1.166,6.57,1111122 
DISL,ioos:station:DISL:PPTA:1,2012-11-04T23:30:00Z,30.2791,-87.5561,1.233,6.26,1111122 
DISL,ioos:station:DISL:PPTA:1,2012-11-05T00:00:00Z,30.2791,-87.5561,1.236,6.0,1111122 
DISL,ioos:station:DISL:PPTA:1,2012-11-05T00:30:00Z,30.2791,-87.5561,1.251,6.17,1111122 
DISL,ioos:station:DISL:PPTA:1,2012-11-05T01:00:00Z,30.2791,-87.5561,1.296,6.01,1111122 
DISL,ioos:station:DISL:PPTA:1,2012-11-05T01:30:00Z,30.2791,-87.5561,1.287,5.78,1111122 
DISL,ioos:station:DISL:PPTA:1,2012-11-05T02:00:00Z,30.2791,-87.5561,1.309,5.79,1111122 
DISL,ioos:station:DISL:PPTA:1,2012-11-05T02:30:00Z,30.2791,-87.5561,1.308,5.43,1111122 
DISL,ioos:station:DISL:PPTA:1,2012-11-05T03:00:00Z,30.2791,-87.5561,1.315,5.45,1111122 
DISL,ioos:station:DISL:PPTA:1,2012-11-05T03:30:00Z,30.2791,-87.5561,1.334,5.42,1111122 
DISL,ioos:station:DISL:PPTA:1,2012-11-05T04:00:00Z,30.2791,-87.5561,1.342,5.32,1111122 
DISL,ioos:station:DISL:PPTA:1,2012-11-05T04:30:00Z,30.2791,-87.5561,1.365,5.1,1111122 
DISL,ioos:station:DISL:PPTA:1,2012-11-05T05:00:00Z,30.2791,-87.5561,1.37,5.41,1111122 
DISL,ioos:station:DISL:PPTA:1,2012-11-05T05:30:00Z,30.2791,-87.5561,1.364,5.27,1111122 
DISL,ioos:station:DISL:PPTA:1,2012-11-05T06:00:00Z,30.2791,-87.5561,1.391,5.3,1111122 
DISL,ioos:station:DISL:PPTA:1,2012-11-05T06:30:00Z,30.2791,-87.5561,1.363,5.6,1111122 
DISL,ioos:station:DISL:PPTA:1,2012-11-05T07:00:00Z,30.2791,-87.5561,1.36,5.33,1111122 
DISL,ioos:station:DISL:PPTA:1,2012-11-05T07:30:00Z,30.2791,-87.5561,1.387,5.54,1111122 
DISL,ioos:station:DISL:PPTA:1,2012-11-05T08:00:00Z,30.2791,-87.5561,1.38,5.39,1111122 
DISL,ioos:station:DISL:PPTA:1,2012-11-05T08:30:00Z,30.2791,-87.5561,1.371,5.5,1111122 
DISL,ioos:station:DISL:PPTA:1,2012-11-05T09:00:00Z,30.2791,-87.5561,1.341,5.41,1111122 
DISL,ioos:station:DISL:PPTA:1,2012-11-05T09:30:00Z,30.2791,-87.5561,1.341,5.34,1111122 
DISL,ioos:station:DISL:PPTA:1,2012-11-05T10:00:00Z,30.2791,-87.5561,1.328,5.89,1111122 
DISL,ioos:station:DISL:PPTA:1,2012-11-05T10:30:00Z,30.2791,-87.5561,1.309,5.48,1111122 
DISL,ioos:station:DISL:PPTA:1,2012-11-05T11:00:00Z,30.2791,-87.5561,1.302,5.57,1111122 
DISL,ioos:station:DISL:PPTA:1,2012-11-05T11:30:00Z,30.2791,-87.5561,1.291,5.39,1111122 
DISL,ioos:station:DISL:PPTA:1,2012-11-05T12:00:00Z,30.2791,-87.5561,1.279,5.34,1111122 
DISL,ioos:station:DISL:PPTA:1,2012-11-05T12:30:00Z,30.2791,-87.5561,1.261,5.57,1111122 
DISL,ioos:station:DISL:PPTA:1,2012-11-05T13:00:00Z,30.2791,-87.5561,1.237,5.79,1111122 
DISL,ioos:station:DISL:PPTA:1,2012-11-05T13:30:00Z,30.2791,-87.5561,1.232,6.12,1111122 
DISL,ioos:station:DISL:PPTA:1,2012-11-05T14:00:00Z,30.2791,-87.5561,1.22,6.25,1111122 
DISL,ioos:station:DISL:PPTA:1,2012-11-05T14:30:00Z,30.2791,-87.5561,1.209,6.31,1111122 
DISL,ioos:station:DISL:PPTA:1,2012-11-05T15:00:00Z,30.2791,-87.5561,1.199,6.16,1111122 
DISL,ioos:station:DISL:PPTA:1,2012-11-05T15:30:00Z,30.2791,-87.5561,1.179,6.24,1111122 
DISL,ioos:station:DISL:PPTA:1,2012-11-05T16:00:00Z,30.2791,-87.5561,1.18,6.47,1111122 
DISL,ioos:station:DISL:PPTA:1,2012-11-05T16:30:00Z,30.2791,-87.5561,1.169,6.61,1111122 
DISL,ioos:station:DISL:PPTA:1,2012-11-05T17:00:00Z,30.2791,-87.5561,1.162,6.74,1111122 
DISL,ioos:station:DISL:PPTA:1,2012-11-05T17:30:00Z,30.2791,-87.5561,1.158,7.05,1111122 
DISL,ioos:station:DISL:PPTA:1,2012-11-05T18:00:00Z,30.2791,-87.5561,1.159,7.15,1111122 
DISL,ioos:station:DISL:PPTA:1,2012-11-05T18:30:00Z,30.2791,-87.5561,1.161,7.13,1111122 
DISL,ioos:station:DISL:PPTA:1,2012-11-05T19:00:00Z,30.2791,-87.5561,1.164,7.13,1111122 
DISL,ioos:station:DISL:PPTA:1,2012-11-05T19:30:00Z,30.2791,-87.5561,1.17,7.08,1111122 
DISL,ioos:station:DISL:PPTA:1,2012-11-05T20:00:00Z,30.2791,-87.5561,1.178,7.0,1111122 
DISL,ioos:station:DISL:PPTA:1,2012-11-05T20:30:00Z,30.2791,-87.5561,1.18,7.03,1111122 
DISL,ioos:station:DISL:PPTA:1,2012-11-05T21:00:00Z,30.2791,-87.5561,1.18,7.1,1111122 
DISL,ioos:station:DISL:PPTA:1,2012-11-05T21:30:00Z,30.2791,-87.5561,1.178,7.07,1111122 
DISL,ioos:station:DISL:PPTA:1,2012-11-05T22:00:00Z,30.2791,-87.5561,1.196,7.2,1111122 
DISL,ioos:station:DISL:PPTA:1,2012-11-05T22:30:00Z,30.2791,-87.5561,1.204,6.79,1111122 
DISL,ioos:station:DISL:PPTA:1,2012-11-05T23:00:00Z,30.2791,-87.5561,1.198,6.68,1111122 
DISL,ioos:station:DISL:PPTA:1,2012-11-05T23:30:00Z,30.2791,-87.5561,1.226,6.25,1111122 
DISL,ioos:station:DISL:PPTA:1,2012-11-06T00:00:00Z,30.2791,-87.5561,1.242,6.11,1111122 
DISL,ioos:station:DISL:PPTA:1,2012-11-06T00:30:00Z,30.2791,-87.5561,1.267,6.08,1111122 
DISL,ioos:station:DISL:PPTA:1,2012-11-06T01:00:00Z,30.2791,-87.5561,1.28,6.14,1111122 
DISL,ioos:station:DISL:PPTA:1,2012-11-06T01:30:00Z,30.2791,-87.5561,1.295,6.12,1111122 
DISL,ioos:station:DISL:PPTA:1,2012-11-06T02:00:00Z,30.2791,-87.5561,1.315,6.19,1111122 
DISL,ioos:station:DISL:PPTA:1,2012-11-06T02:30:00Z,30.2791,-87.5561,1.328,6.16,1111122 
DISL,ioos:station:DISL:PPTA:1,2012-11-06T03:00:00Z,30.2791,-87.5561,1.343,6.04,1111122 
DISL,ioos:station:DISL:PPTA:1,2012-11-06T03:30:00Z,30.2791,-87.5561,1.357,6.09,1111122 
DISL,ioos:station:DISL:PPTA:1,2012-11-06T04:00:00Z,30.2791,-87.5561,1.39,5.97,1111122 
DISL,ioos:station:DISL:PPTA:1,2012-11-06T04:30:00Z,30.2791,-87.5561,1.4,6.02,1111122 
DISL,ioos:station:DISL:PPTA:1,2012-11-06T05:00:00Z,30.2791,-87.5561,1.4,5.97,1111122 
DISL,ioos:station:DISL:PPTA:1,2012-11-06T05:30:00Z,30.2791,-87.5561,1.429,6.13,1111122 
DISL,ioos:station:DISL:PPTA:1,2012-11-06T06:00:00Z,30.2791,-87.5561,1.446,6.04,1111122 
DISL,ioos:station:DISL:PPTA:1,2012-11-06T06:30:00Z,30.2791,-87.5561,1.449,5.83,1111122 
DISL,ioos:station:DISL:PPTA:1,2012-11-06T07:00:00Z,30.2791,-87.5561,1.467,6.42,1111122 
DISL,ioos:station:DISL:PPTA:1,2012-11-06T07:30:00Z,30.2791,-87.5561,1.428,6.22,1111122 
DISL,ioos:station:DISL:PPTA:1,2012-11-06T08:00:00Z,30.2791,-87.5561,1.39,6.19,1111122 
DISL,ioos:station:DISL:PPTA:1,2012-11-06T08:30:00Z,30.2791,-87.5561,1.396,6.25,1111122 
DISL,ioos:station:DISL:PPTA:1,2012-11-06T09:00:00Z,30.2791,-87.5561,1.388,6.12,1111122 
DISL,ioos:station:DISL:PPTA:1,2012-11-06T09:30:00Z,30.2791,-87.5561,1.391,6.25,1111122 
DISL,ioos:station:DISL:PPTA:1,2012-11-06T10:00:00Z,30.2791,-87.5561,1.39,6.28,1111122 
DISL,ioos:station:DISL:PPTA:1,2012-11-06T10:30:00Z,30.2791,-87.5561,1.396,6.23,1111122 
DISL,ioos:station:DISL:PPTA:1,2012-11-06T11:00:00Z,30.2791,-87.5561,1.386,6.12,1111122 
DISL,ioos:station:DISL:PPTA:1,2012-11-06T11:30:00Z,30.2791,-87.5561,1.358,6.11,1111122 
DISL,ioos:station:DISL:PPTA:1,2012-11-06T12:00:00Z,30.2791,-87.5561,1.372,6.22,1111122 
DISL,ioos:station:DISL:PPTA:1,2012-11-06T12:30:00Z,30.2791,-87.5561,1.328,6.19,1111122 
DISL,ioos:station:DISL:PPTA:1,2012-11-06T13:00:00Z,30.2791,-87.5561,1.343,6.08,1111122 
DISL,ioos:station:DISL:PPTA:1,2012-11-06T13:30:00Z,30.2791,-87.5561,1.308,6.27,1111122 
DISL,ioos:station:DISL:PPTA:1,2012-11-06T14:00:00Z,30.2791,-87.5561,1.331,6.49,1111122 
DISL,ioos:station:DISL:PPTA:1,2012-11-06T14:30:00Z,30.2791,-87.5561,1.29,6.64,1111122 
DISL,ioos:station:DISL:PPTA:1,2012-11-06T15:00:00Z,30.2791,-87.5561,1.248,6.6,1111122 
DISL,ioos:station:DISL:PPTA:1,2012-11-06T15:30:00Z,30.2791,-87.5561,1.258,6.69,1111122 